WMT8ZQ LATI-LIRN

Flight info

Callsign WMT8ZQ
Flight time 1h 3m
Altitude 34000
Route DIRES DCT PAPIZ DCT TOPNO/N0459F360 DCT DOGUS/N0389F180 L995 EKTOL
Aircraft A320/M-SDE3FGHIRWY/LB1

Departure

Time 2026-04-30 21:45
Airport Tirana International Airport Mother Teresa (LATI)

Arrival

Time 2026-04-30 22:49
Airport Naples International Airport (LIRN)
Time Latitude Longitude Altitude Speed Heading
2026-04-30 20:58 41.41948 19.71514 120 ft 0 kts 264°
2026-04-30 21:34 41.41950 19.71531 118 ft 4 kts 257°
2026-04-30 21:34 41.41980 19.71576 118 ft 2 kts 175°
2026-04-30 21:34 41.41986 19.71575 118 ft 0 kts 174°
2026-04-30 21:38 41.41984 19.71576 123 ft 2 kts 174°
2026-04-30 21:38 41.41928 19.71584 120 ft 15 kts 174°
2026-04-30 21:38 41.41798 19.71602 121 ft 20 kts 174°
2026-04-30 21:38 41.41652 19.71622 126 ft 22 kts 175°
2026-04-30 21:39 41.41496 19.71642 123 ft 23 kts 174°
2026-04-30 21:39 41.41331 19.71664 126 ft 25 kts 174°
2026-04-30 21:39 41.41158 19.71687 127 ft 23 kts 175°
2026-04-30 21:39 41.40998 19.71708 130 ft 23 kts 174°
2026-04-30 21:40 41.40837 19.71742 131 ft 24 kts 169°
2026-04-30 21:40 41.40685 19.71767 132 ft 20 kts 173°
2026-04-30 21:40 41.40539 19.71791 132 ft 22 kts 173°
2026-04-30 21:40 41.40397 19.71819 132 ft 10 kts 157°
2026-04-30 21:41 41.40336 19.71876 133 ft 12 kts 144°
2026-04-30 21:41 41.40266 19.71946 133 ft 14 kts 141°
2026-04-30 21:41 41.40239 19.72029 133 ft 9 kts 87°
2026-04-30 21:41 41.40243 19.72086 133 ft 0 kts 84°
2026-04-30 21:42 41.40245 19.72114 133 ft 7 kts 84°
2026-04-30 21:42 41.40251 19.72201 132 ft 11 kts 84°
2026-04-30 21:43 41.40276 19.72219 132 ft 0 kts 349°
2026-04-30 21:43 41.40279 19.72218 132 ft 0 kts 351°
2026-04-30 21:44 41.40281 19.72218 132 ft 0 kts 352°
2026-04-30 21:44 41.40291 19.72216 132 ft 7 kts 352°
2026-04-30 21:45 41.40560 19.72179 133 ft 77 kts 354°
2026-04-30 21:45 41.41318 19.72077 126 ft 139 kts 354°
2026-04-30 21:45 41.42355 19.71928 585 ft 148 kts 354°
2026-04-30 21:45 41.43374 19.71785 1334 ft 145 kts 356°
2026-04-30 21:46 41.44404 19.71647 1742 ft 157 kts 357°
2026-04-30 21:46 41.45563 19.71502 1975 ft 179 kts 358°
2026-04-30 21:46 41.46878 19.71336 2232 ft 201 kts 358°
2026-04-30 21:46 41.48362 19.71147 2528 ft 226 kts 357°
2026-04-30 21:47 41.50013 19.70935 2960 ft 249 kts 356°
2026-04-30 21:47 41.51771 19.70704 3717 ft 256 kts 358°
2026-04-30 21:47 41.53550 19.70467 4656 ft 259 kts 357°
2026-04-30 21:47 41.55348 19.70226 5547 ft 260 kts 357°
2026-04-30 21:48 41.56546 19.70065 6173 ft 261 kts 357°
2026-04-30 21:48 41.58944 19.69744 7335 ft 263 kts 355°
2026-04-30 21:48 41.60767 19.69405 8183 ft 264 kts 343°
2026-04-30 21:48 41.62223 19.68087 9419 ft 251 kts 310°
2026-04-30 21:49 41.62982 19.66012 10349 ft 252 kts 283°
2026-04-30 21:49 41.62898 19.63671 11090 ft 258 kts 255°
2026-04-30 21:49 41.61973 19.61581 11698 ft 273 kts 230°
2026-04-30 21:49 41.60962 19.60490 11843 ft 292 kts 213°
2026-04-30 21:50 41.59135 19.59075 12026 ft 315 kts 212°
2026-04-30 21:50 41.57154 19.57589 12172 ft 338 kts 211°
2026-04-30 21:50 41.55031 19.56016 12299 ft 359 kts 211°
2026-04-30 21:50 41.52800 19.54362 12641 ft 372 kts 211°
2026-04-30 21:51 41.50526 19.52668 13242 ft 376 kts 211°
2026-04-30 21:51 41.48230 19.50953 13892 ft 380 kts 212°
2026-04-30 21:51 41.45917 19.49222 14486 ft 383 kts 212°
2026-04-30 21:51 41.43591 19.47476 15057 ft 385 kts 212°
2026-04-30 21:52 41.41248 19.45713 15599 ft 388 kts 212°
2026-04-30 21:52 41.38903 19.43949 16396 ft 382 kts 215°
2026-04-30 21:52 41.36569 19.42195 16840 ft 391 kts 213°
2026-04-30 21:52 41.34174 19.40391 17244 ft 398 kts 213°
2026-04-30 21:53 41.31755 19.38575 17869 ft 401 kts 213°
2026-04-30 21:53 41.29317 19.36753 18474 ft 403 kts 213°
2026-04-30 21:53 41.26861 19.34924 19011 ft 406 kts 213°
2026-04-30 21:53 41.24390 19.33088 19574 ft 408 kts 213°
2026-04-30 21:54 41.21905 19.31239 20130 ft 410 kts 213°
2026-04-30 21:54 41.19410 19.29384 20652 ft 412 kts 213°
2026-04-30 21:54 41.16903 19.27519 21165 ft 414 kts 213°
2026-04-30 21:54 41.14385 19.25649 21646 ft 416 kts 213°
2026-04-30 21:55 41.11854 19.23769 22123 ft 418 kts 214°
2026-04-30 21:55 41.09312 19.21879 22578 ft 420 kts 214°
2026-04-30 21:55 41.06807 19.19897 23015 ft 418 kts 220°
2026-04-30 21:55 41.04574 19.17453 23438 ft 415 kts 229°
2026-04-30 21:56 41.02617 19.14660 23839 ft 414 kts 232°
2026-04-30 21:56 41.00678 19.11831 24202 ft 416 kts 232°
2026-04-30 21:56 40.98727 19.08992 24533 ft 417 kts 233°
2026-04-30 21:56 40.96771 19.06158 24914 ft 417 kts 233°
2026-04-30 21:57 40.94836 19.03361 25276 ft 418 kts 233°
2026-04-30 21:57 40.92879 19.00453 25643 ft 416 kts 237°
2026-04-30 21:57 40.91324 18.97327 25986 ft 410 kts 247°
2026-04-30 21:57 40.90217 18.93888 26348 ft 405 kts 257°
2026-04-30 21:58 40.89593 18.90286 26710 ft 401 kts 266°
2026-04-30 21:58 40.89453 18.86628 27111 ft 397 kts 274°
2026-04-30 21:58 40.89584 18.83007 27656 ft 393 kts 275°
2026-04-30 21:58 40.89702 18.79415 28213 ft 389 kts 275°
2026-04-30 21:59 40.89813 18.75857 28795 ft 385 kts 275°
2026-04-30 21:59 40.89920 18.72335 29368 ft 382 kts 275°
2026-04-30 21:59 40.90023 18.68848 29964 ft 378 kts 275°
2026-04-30 22:00 40.90224 18.61972 30938 ft 372 kts 275°
2026-04-30 22:00 40.90431 18.55145 31703 ft 372 kts 275°
2026-04-30 22:00 40.90535 18.51723 32033 ft 373 kts 275°
2026-04-30 22:01 40.90636 18.48299 32384 ft 373 kts 275°
2026-04-30 22:01 40.90736 18.44869 32740 ft 373 kts 274°
2026-04-30 22:01 40.90836 18.41442 33102 ft 373 kts 274°
2026-04-30 22:01 40.90932 18.38024 33546 ft 371 kts 274°
2026-04-30 22:02 40.91026 18.34618 33877 ft 371 kts 274°
2026-04-30 22:02 40.91118 18.31209 34110 ft 371 kts 274°
2026-04-30 22:02 40.91309 18.24294 34176 ft 383 kts 274°
2026-04-30 22:03 40.91503 18.17220 34174 ft 386 kts 274°
2026-04-30 22:03 40.91693 18.10163 34173 ft 387 kts 274°
2026-04-30 22:04 40.91874 18.03054 34174 ft 387 kts 274°
2026-04-30 22:05 40.92140 17.92390 34178 ft 387 kts 274°
2026-04-30 22:05 40.92308 17.85282 34182 ft 387 kts 274°
2026-04-30 22:06 40.92478 17.78173 34183 ft 387 kts 274°
2026-04-30 22:06 40.92726 17.67515 34172 ft 387 kts 274°
2026-04-30 22:07 40.92882 17.60403 34175 ft 387 kts 274°
2026-04-30 22:07 40.93036 17.53293 34177 ft 387 kts 274°
2026-04-30 22:08 40.93184 17.46180 34177 ft 387 kts 274°
2026-04-30 22:08 40.93325 17.39067 34175 ft 387 kts 274°
2026-04-30 22:09 40.93464 17.31947 34175 ft 388 kts 274°
2026-04-30 22:09 40.93597 17.24863 34175 ft 388 kts 274°
2026-04-30 22:10 40.93725 17.17727 34176 ft 388 kts 274°
2026-04-30 22:10 40.93848 17.10585 34177 ft 389 kts 274°
2026-04-30 22:11 40.94037 16.99868 34181 ft 388 kts 274°
2026-04-30 22:12 40.94155 16.92735 34186 ft 388 kts 274°
2026-04-30 22:12 40.94264 16.85610 34182 ft 387 kts 274°
2026-04-30 22:13 40.94369 16.78517 34197 ft 385 kts 274°
2026-04-30 22:13 40.94476 16.71447 34207 ft 384 kts 274°
2026-04-30 22:14 40.94575 16.64389 34197 ft 383 kts 274°
2026-04-30 22:14 40.94664 16.57342 34208 ft 383 kts 273°
2026-04-30 22:15 40.94746 16.50297 34208 ft 383 kts 274°
2026-04-30 22:15 40.94828 16.43259 34214 ft 383 kts 274°
2026-04-30 22:16 40.94909 16.36223 34212 ft 383 kts 274°
2026-04-30 22:17 40.95066 16.22190 34215 ft 383 kts 274°
2026-04-30 22:17 40.95191 16.11626 34219 ft 382 kts 277°
2026-04-30 22:18 40.96783 16.01342 34223 ft 380 kts 283°
2026-04-30 22:19 40.98520 15.91101 34221 ft 376 kts 283°
2026-04-30 22:19 40.99645 15.84383 33031 ft 377 kts 284°
2026-04-30 22:20 41.00218 15.80980 32169 ft 380 kts 284°
2026-04-30 22:20 41.01368 15.74128 30577 ft 382 kts 284°
2026-04-30 22:20 41.01942 15.70695 29654 ft 382 kts 284°
2026-04-30 22:21 41.02517 15.67249 28570 ft 385 kts 284°
2026-04-30 22:21 41.03099 15.63761 27392 ft 391 kts 284°
2026-04-30 22:21 41.03689 15.60214 26226 ft 397 kts 284°
2026-04-30 22:21 41.04282 15.56644 25382 ft 396 kts 284°
2026-04-30 22:22 41.04870 15.53088 24579 ft 395 kts 284°
2026-04-30 22:22 41.05454 15.49542 23787 ft 393 kts 284°
2026-04-30 22:22 41.06037 15.46006 22889 ft 392 kts 284°
2026-04-30 22:22 41.06619 15.42487 22064 ft 390 kts 284°
2026-04-30 22:23 41.07197 15.38986 21273 ft 387 kts 284°
2026-04-30 22:23 41.07773 15.35508 20499 ft 385 kts 284°
2026-04-30 22:23 41.08345 15.32045 19757 ft 384 kts 284°
2026-04-30 22:23 41.08901 15.28640 19050 ft 383 kts 284°
2026-04-30 22:24 41.09457 15.25214 18682 ft 377 kts 284°
2026-04-30 22:24 41.09965 15.21810 18005 ft 377 kts 279°
2026-04-30 22:24 41.10055 15.18332 17303 ft 380 kts 269°
2026-04-30 22:24 41.09608 15.14866 16759 ft 381 kts 257°
2026-04-30 22:25 41.08667 15.11638 16632 ft 371 kts 248°
2026-04-30 22:25 41.07531 15.08643 16500 ft 356 kts 248°
2026-04-30 22:25 41.06448 15.05780 16361 ft 337 kts 248°
2026-04-30 22:25 41.05433 15.03106 16228 ft 311 kts 248°
2026-04-30 22:26 41.03531 14.98065 15487 ft 304 kts 248°
2026-04-30 22:26 41.02591 14.95569 15132 ft 303 kts 248°
2026-04-30 22:26 41.01649 14.93078 14785 ft 302 kts 248°
2026-04-30 22:27 41.00710 14.90602 14436 ft 300 kts 248°
2026-04-30 22:27 40.99772 14.88139 14199 ft 299 kts 248°
2026-04-30 22:27 40.97898 14.83239 13684 ft 298 kts 248°
2026-04-30 22:28 40.96035 14.78370 13154 ft 295 kts 247°
2026-04-30 22:28 40.95109 14.75947 12888 ft 295 kts 247°
2026-04-30 22:29 40.92344 14.68723 12113 ft 292 kts 248°
2026-04-30 22:29 40.91425 14.66328 11852 ft 292 kts 247°
2026-04-30 22:30 40.87769 14.56835 10857 ft 288 kts 246°
2026-04-30 22:31 40.85043 14.49791 10118 ft 285 kts 246°
2026-04-30 22:32 40.82363 14.42856 9634 ft 282 kts 246°
2026-04-30 22:32 40.80576 14.38253 9372 ft 282 kts 246°
2026-04-30 22:33 40.77789 14.31440 8964 ft 283 kts 238°
2026-04-30 22:33 40.75536 14.27195 8710 ft 282 kts 238°
2026-04-30 22:34 40.72172 14.20863 8319 ft 280 kts 238°
2026-04-30 22:35 40.69941 14.16685 8067 ft 272 kts 238°
2026-04-30 22:36 40.65845 14.09011 7552 ft 245 kts 239°
2026-04-30 22:36 40.64869 14.07171 7433 ft 245 kts 238°
2026-04-30 22:37 40.61957 14.01697 7061 ft 244 kts 238°
2026-04-30 22:37 40.60980 13.99870 6947 ft 244 kts 238°
2026-04-30 22:37 40.59004 13.96174 6706 ft 264 kts 238°
2026-04-30 22:38 40.56828 13.92104 6462 ft 275 kts 237°
2026-04-30 22:38 40.55005 13.88682 6253 ft 274 kts 242°
2026-04-30 22:39 40.54488 13.86349 6114 ft 265 kts 276°
2026-04-30 22:39 40.57814 13.81326 5724 ft 249 kts 328°
2026-04-30 22:40 40.62538 13.80041 5343 ft 256 kts 37°
2026-04-30 22:41 40.65796 13.85626 4968 ft 258 kts 54°
2026-04-30 22:41 40.67775 13.89565 4728 ft 257 kts 54°
2026-04-30 22:42 40.71794 13.97205 4206 ft 249 kts 53°
2026-04-30 22:43 40.73769 14.00893 3991 ft 244 kts 54°
2026-04-30 22:43 40.75781 14.04483 4001 ft 244 kts 50°
2026-04-30 22:44 40.77791 14.08109 3999 ft 245 kts 54°
2026-04-30 22:45 40.81486 14.15126 3004 ft 200 kts 51°
2026-04-30 22:45 40.83175 14.17500 2503 ft 151 kts 55°
2026-04-30 22:46 40.84115 14.19618 2445 ft 131 kts 55°
2026-04-30 22:47 40.86116 14.23770 1282 ft 135 kts 58°
2026-04-30 22:47 40.87096 14.25868 819 ft 134 kts 57°
2026-04-30 22:48 40.88056 14.27925 368 ft 131 kts 54°
2026-04-30 22:49 40.88952 14.29813 247 ft 36 kts 58°
2026-04-30 22:49 40.89009 14.30160 238 ft 9 kts 148°
2026-04-30 22:50 40.88823 14.29955 247 ft 13 kts 232°
2026-04-30 22:51 40.88683 14.29707 254 ft 19 kts 229°
2026-04-30 22:51 40.88525 14.29438 262 ft 18 kts 232°
2026-04-30 22:52 40.88449 14.29307 266 ft 18 kts 233°
2026-04-30 22:52 40.88301 14.29048 272 ft 17 kts 233°
2026-04-30 22:53 40.88150 14.28786 279 ft 21 kts 233°
2026-04-30 22:53 40.88046 14.28487 285 ft 15 kts 278°
2026-04-30 22:53 40.88058 14.28355 287 ft 13 kts 276°
2026-04-30 22:54 40.88009 14.28137 295 ft 12 kts 214°
2026-04-30 22:55 40.87950 14.28353 289 ft 7 kts 50°
2026-04-30 22:55 40.88013 14.28312 289 ft 4 kts 335°
2026-04-30 22:56 40.88017 14.28309 291 ft 0 kts 335°